| time (UTC) | temp C | wind direction | speed KPH | gust KPH | rain 1hr cm | rain 24hr cm | rain mn cm | humidity % | barometer mb |
| 20260507194547 | 15 | 105 | 0.0 | 0.0 | 0.00 | 0.05 | 0.03 | 71 | 1012.6 |
| 20260507193108 | 16 | 105 | 0.0 | 0.0 | 0.00 | 0.05 | 0.03 | 68 | 1012.4 |
| 20260507191554 | 16 | 105 | 0.0 | 0.0 | 0.00 | 0.05 | 0.03 | 67 | 1012.3 |
| 20260507190046 | 17 | 105 | 0.0 | 0.0 | 0.00 | 0.05 | 0.03 | 66 | 1012.2 |
| 20260507184545 | 17 | 105 | 0.0 | 0.0 | 0.00 | 0.23 | 0.03 | 66 | 1012.0 |
| 20260507183056 | 17 | 105 | 0.0 | 0.0 | 0.00 | 0.23 | 0.03 | 64 | 1011.9 |
| 20260507181545 | 17 | 105 | 0.0 | 0.0 | 0.00 | 0.23 | 0.03 | 63 | 1011.9 |
| 20260507180043 | 18 | 107 | 0.0 | 3.2 | 0.00 | 0.23 | 0.03 | 62 | 1011.8 |
| 20260507174544 | 18 | 96 | 0.0 | 1.6 | 0.00 | 0.30 | 0.03 | 61 | 1011.6 |
| 20260507173101 | 19 | 102 | 0.0 | 0.0 | 0.00 | 0.30 | 0.03 | 59 | 1011.6 |
| 20260507171545 | 20 | 179 | 0.0 | 0.0 | 0.00 | 0.30 | 0.03 | 56 | 1011.8 |
| 20260507170047 | 20 | 188 | 0.0 | 1.6 | 0.00 | 0.30 | 0.03 | 56 | 1011.7 |
| 20260507164546 | 20 | 112 | 0.0 | 6.4 | 0.00 | 0.30 | 0.03 | 56 | 1011.9 |
| 20260507163040 | 21 | 122 | 0.0 | 0.0 | 0.00 | 0.30 | 0.03 | 57 | 1012.0 |
| 20260507161542 | 21 | 109 | 0.0 | 0.0 | 0.00 | 0.30 | 0.03 | 54 | 1012.0 |
| 20260507160058 | 21 | 103 | 0.0 | 1.6 | 0.00 | 0.30 | 0.03 | 54 | 1012.0 |
| 20260507154539 | 21 | 98 | 0.0 | 6.4 | 0.00 | 0.30 | 0.03 | 54 | 1012.1 |
| 20260507153038 | 21 | 105 | 0.0 | 3.2 | 0.00 | 0.30 | 0.03 | 53 | 1012.1 |
| 20260507151536 | 22 | 85 | 0.0 | 6.4 | 0.00 | 0.30 | 0.03 | 54 | 1012.2 |
| 20260507150033 | 21 | 91 | 0.0 | 1.6 | 0.00 | 0.30 | 0.03 | 54 | 1012.3 |
| 20260507144543 | 21 | 102 | 0.0 | 6.4 | 0.00 | 0.30 | 0.03 | 58 | 1012.3 |
| 20260507143034 | 21 | 92 | 0.0 | 1.6 | 0.00 | 0.30 | 0.03 | 56 | 1012.4 |
| 20260507141530 | 20 | 66 | 0.0 | 1.6 | 0.00 | 0.30 | 0.03 | 58 | 1012.4 |
| 20260507140033 | 20 | 111 | 0.0 | 6.4 | 0.00 | 0.30 | 0.03 | 57 | 1012.6 |
| 20260507134529 | 20 | 109 | 0.0 | 6.4 | 0.00 | 0.30 | 0.03 | 57 | 1012.9 |
| 20260507133028 | 20 | 105 | 0.0 | 6.4 | 0.00 | 0.30 | 0.03 | 58 | 1013.0 |
| 20260507131530 | 20 | 107 | 0.0 | 6.4 | 0.00 | 0.30 | 0.03 | 55 | 1013.1 |
| 20260507130031 | 20 | 146 | 0.0 | 1.6 | 0.00 | 0.30 | 0.03 | 60 | 1013.2 |
| 20260507124523 | 20 | 132 | 0.0 | 0.0 | 0.00 | 0.30 | 0.03 | 62 | 1013.4 |
| 20260507123026 | 19 | 169 | 0.0 | 1.6 | 0.00 | 0.30 | 0.03 | 65 | 1013.4 |
| 20260507121514 | 18 | 96 | 0.0 | 0.0 | 0.00 | 0.30 | 0.03 | 68 | 1013.6 |
| 20260507120012 | 17 | 124 | 0.0 | 0.0 | 0.00 | 0.33 | 0.03 | 71 | 1013.6 |
| 20260507114510 | 16 | 117 | 0.0 | 0.0 | 0.00 | 0.33 | 0.03 | 73 | 1013.7 |
| 20260507113010 | 16 | 205 | 0.0 | 0.0 | 0.00 | 0.33 | 0.03 | 74 | 1013.9 |
| 20260507111510 | 16 | 198 | 0.0 | 0.0 | 0.00 | 0.33 | 0.03 | 73 | 1013.9 |
| 20260507110010 | 17 | 138 | 0.0 | 0.0 | 0.00 | 0.33 | 0.03 | 71 | 1014.0 |
| 20260507104511 | 17 | 106 | 0.0 | 0.0 | 0.00 | 0.33 | 0.03 | 70 | 1013.9 |
| 20260507103008 | 17 | 104 | 0.0 | 0.0 | 0.00 | 0.33 | 0.03 | 68 | 1014.0 |
| 20260507101514 | 17 | 103 | 0.0 | 0.0 | 0.00 | 0.33 | 0.03 | 70 | 1014.0 |
| 20260507100007 | 16 | 97 | 0.0 | 0.0 | 0.00 | 0.46 | 0.03 | 71 | 1014.2 |
| 20260507094507 | 17 | 96 | 0.0 | 0.0 | 0.00 | 0.46 | 0.03 | 69 | 1014.2 |
| 20260507093009 | 17 | 103 | 0.0 | 0.0 | 0.00 | 0.46 | 0.03 | 71 | 1014.0 |
| 20260507091502 | 16 | 97 | 0.0 | 0.0 | 0.00 | 0.46 | 0.03 | 75 | 1014.0 |
| 20260507090111 | 15 | 108 | 0.0 | 0.0 | 0.00 | 0.46 | 0.03 | 78 | 1014.0 |
| 20260507084555 | 15 | 110 | 0.0 | 0.0 | 0.00 | 0.71 | 0.03 | 79 | 1014.0 |
| 20260507083050 | 13 | 184 | 0.0 | 0.0 | 0.00 | 0.71 | 0.03 | 85 | 1014.0 |
| 20260507081545 | 12 | 191 | 0.0 | 0.0 | 0.00 | 0.71 | 0.03 | 86 | 1014.1 |
| 20260507080042 | 12 | 240 | 0.0 | 0.0 | 0.00 | 0.71 | 0.03 | 88 | 1014.0 |
| 20260507074542 | 12 | 240 | 0.0 | 0.0 | 0.00 | 1.09 | 0.03 | 88 | 1013.9 |
| 20260507073039 | 12 | 240 | 0.0 | 0.0 | 0.00 | 1.09 | 0.03 | 90 | 1013.8 |
| 20260507071535 | 11 | 240 | 0.0 | 0.0 | 0.00 | 1.09 | 0.03 | 91 | 1013.7 |
| 20260507070034 | 11 | 240 | 0.0 | 0.0 | 0.00 | 1.45 | 0.03 | 92 | 1013.7 |
| 20260507064531 | 11 | 240 | 0.0 | 0.0 | 0.00 | 1.45 | 0.03 | 92 | 1013.6 |
| 20260507063030 | 10 | 240 | 0.0 | 0.0 | 0.00 | 1.45 | 0.03 | 92 | 1013.6 |
| 20260507061527 | 10 | 240 | 0.0 | 0.0 | 0.00 | 1.45 | 0.03 | 92 | 1013.6 |
| 20260507060023 | 10 | 240 | 0.0 | 0.0 | 0.00 | 1.85 | 0.03 | 92 | 1013.5 |
| 20260507054518 | 10 | 240 | 0.0 | 0.0 | 0.00 | 1.85 | 0.03 | 92 | 1013.6 |
| 20260507053016 | 10 | 240 | 0.0 | 0.0 | 0.00 | 1.85 | 0.03 | 91 | 1013.4 |
| 20260507051514 | 9 | 240 | 0.0 | 0.0 | 0.00 | 1.85 | 0.03 | 91 | 1013.2 |
| 20260507050012 | 9 | 240 | 0.0 | 0.0 | 0.00 | 2.18 | 0.03 | 91 | 1013.0 |
| 20260507044511 | 9 | 240 | 0.0 | 0.0 | 0.00 | 2.18 | 0.03 | 91 | 1012.9 |
| 20260507043009 | 9 | 240 | 0.0 | 0.0 | 0.00 | 2.18 | 0.03 | 91 | 1012.9 |
| 20260507041523 | 9 | 240 | 0.0 | 0.0 | 0.00 | 2.18 | 0.03 | 91 | 1012.8 |
| 20260507040008 | 9 | 240 | 0.0 | 0.0 | 0.00 | 2.39 | 0.03 | 91 | 1012.8 |
| 20260507034512 | 9 | 240 | 0.0 | 0.0 | 0.00 | 2.39 | 0.03 | 91 | 1012.8 |
| 20260507033009 | 9 | 240 | 0.0 | 0.0 | 0.00 | 2.39 | 0.03 | 91 | 1012.7 |
| 20260507031505 | 9 | 240 | 0.0 | 0.0 | 0.00 | 2.39 | 0.03 | 91 | 1012.5 |
| 20260507030004 | 9 | 240 | 0.0 | 0.0 | 0.00 | 2.41 | 0.03 | 91 | 1012.6 |
| 20260507024505 | 9 | 240 | 0.0 | 0.0 | 0.00 | 2.41 | 0.03 | 90 | 1012.6 |
| 20260507023001 | 9 | 240 | 0.0 | 0.0 | 0.00 | 2.41 | 0.03 | 90 | 1012.5 |
| 20260507021600 | 10 | 240 | 0.0 | 0.0 | 0.00 | 2.41 | 0.03 | 90 | 1012.3 |
| 20260507020059 | 10 | 240 | 0.0 | 0.0 | 0.00 | 2.41 | 0.03 | 91 | 1012.3 |
| 20260507014607 | 10 | 240 | 0.0 | 0.0 | 0.00 | 2.41 | 0.03 | 91 | 1012.3 |
| 20260507013113 | 10 | 240 | 0.0 | 0.0 | 0.00 | 2.41 | 0.03 | 91 | 1012.3 |
| 20260507011556 | 10 | 240 | 0.0 | 0.0 | 0.00 | 2.41 | 0.03 | 91 | 1012.2 |
| 20260507010056 | 10 | 240 | 0.0 | 0.0 | 0.00 | 2.41 | 0.03 | 91 | 1012.3 |
| 20260507004555 | 10 | 240 | 0.0 | 0.0 | 0.00 | 2.41 | 0.03 | 91 | 1012.2 |
| 20260507003053 | 10 | 240 | 0.0 | 0.0 | 0.00 | 2.41 | 0.03 | 90 | 1012.3 |
| 20260507001609 | 10 | 240 | 0.0 | 0.0 | 0.00 | 2.41 | 0.03 | 90 | 1012.2 |
| 20260507000051 | 10 | 240 | 0.0 | 0.0 | 0.00 | 2.41 | 0.03 | 90 | 1012.1 |
| 20260506234552 | 10 | 240 | 0.0 | 0.0 | 0.03 | 2.41 | 0.03 | 90 | 1012.1 |
| 20260506233049 | 10 | 240 | 0.0 | 0.0 | 0.03 | 2.41 | 0.03 | 90 | 1011.9 |
| 20260506231549 | 10 | 240 | 0.0 | 0.0 | 0.03 | 2.41 | 0.03 | 90 | 1012.0 |
| 20260506230047 | 10 | 240 | 0.0 | 0.0 | 0.03 | 2.41 | 0.03 | 90 | 1012.0 |
| 20260506224546 | 10 | 240 | 0.0 | 0.0 | 0.00 | 2.39 | 0.00 | 90 | 1011.9 |
| 20260506223101 | 10 | 240 | 0.0 | 0.0 | 0.00 | 2.39 | 0.00 | 90 | 1011.9 |
| 20260506221543 | 10 | 240 | 0.0 | 0.0 | 0.00 | 2.39 | 0.00 | 90 | 1011.8 |
| 20260506220042 | 10 | 240 | 0.0 | 0.0 | 0.00 | 2.39 | 0.00 | 90 | 1011.8 |
| 20260506214542 | 10 | 240 | 0.0 | 0.0 | 0.00 | 2.74 | 2.39 | 90 | 1011.7 |
| 20260506213039 | 10 | 240 | 0.0 | 0.0 | 0.00 | 2.74 | 2.39 | 89 | 1011.6 |
| 20260506211540 | 10 | 240 | 0.0 | 0.0 | 0.00 | 2.74 | 2.39 | 89 | 1011.7 |
| 20260506210040 | 10 | 240 | 0.0 | 0.0 | 0.00 | 3.33 | 2.39 | 90 | 1011.7 |
| 20260506204535 | 10 | 240 | 0.0 | 0.0 | 0.00 | 3.33 | 2.39 | 89 | 1011.5 |
| 20260506203041 | 10 | 240 | 0.0 | 0.0 | 0.00 | 3.33 | 2.39 | 89 | 1011.4 |
| 20260506201532 | 10 | 240 | 0.0 | 0.0 | 0.00 | 3.33 | 2.39 | 89 | 1011.3 |
| 20260506200035 | 11 | 240 | 0.0 | 0.0 | 0.03 | 3.33 | 2.39 | 89 | 1011.2 |